Weather in Mbombela

South Africa     25°28′22″S   30°58′37″E
temp.,
°C
wind,
m/s
gust,
m/s
humid.,
%
clouds,
%
prec.,
mm/h
press.,
hPa
HPBL,
m
18 april, sun
sun1823:00+9wnw11910 0.0 102811
02:00+8w21950 0.0 102721
05:00+8w21960 0.0 102721
08:00+14w11640 0.0 1026255
11:00+23ene21380 0.0 10241046
14:00+26ene32270 0.0 10201772
17:00+22ene46370 0.0 1020455
20:00+14w006624 0.0 102411
19 april, mon
mon1923:00+12wsw117659 0.0 102511
02:00+10w22825 0.0 102319
05:00+10w22862 0.0 102319
08:00+16wsw12560 0.0 1022227
11:00+27ene11290 0.0 1020981
14:00+29ene34205 0.0 10161911
17:00+25ene25294 0.0 1017158
20:00+16w11500 0.0 102111
20 april, tue
tue2023:00+13sw11604 0.0 102310
02:00+12w226972 0.0 102418
05:00+15w2362100 0.0 1024105
08:00+17sw115938 0.0 1025209
11:00+24ese454463 0.0 10231974
14:00+25ese44360 0.0 10212086
17:00+22ese464418 0.0 1021914
20:00+15nne01890 0.1 102511
21 april, wed
wed2123:00+13w119596 0.0 102514
02:00+15w0186100 0.1 102341
05:00+16nw118345 0.0 102319
08:00+18nw00690 0.0 1024342
11:00+25ne21350 0.0 10211287
14:00+28ene32260 0.0 10172022
17:00+24ne363312 0.0 1018406
20:00+16sw11575 0.0 102111
22 april, thu
thu2223:00+14w21651 0.0 102116
02:00+13wnw11735 0.0 102114
05:00+12w21774 0.0 102117
08:00+18wsw11535 0.0 1021223
11:00+28n12290 0.0 10181151
14:00+31ene35217 0.0 10132500
17:00+27ne483147 0.0 1013645
20:00+20ene114883 0.0 101616